NOAA 16 DEB, 41510

Orbit data source: Space-Track

NOAA 16 DEB, 41510 is space debris in SSO originally from a launch on Thu, 21 Sep 2000 UTC launched from the Air Force Western Test Range (AFWTR). Debris objects in space refer to the collection of defunct objects orbiting the Earth. Examples of debris include non-operational satellites, rocket bodies, and fragments generated from explosions, collisions, or faulty payload assembly.

Loading next visibility...
Identifier
41510, 2000-055MJ
Orbit
SSO
Country
Flag of USUS
Related business
Manufacturer
Unknown
Mission
Spacecraft
Bus & Motor
Unknown
Mass
Unknown
Launch date (UTC)
2000-09-21 (25 years ago)
Launch vehicle
Unknown
Launch site
Air Force Western Test Range (AFWTR)
Object type
Payload
Rocket body
Debris
Shape & HBR
Unknown shape, 0.1 m
Radar Cross Section
Small (<0.1 m²)

Expand to show TLE details & history
Last TLE update: 1 day ago

TLE from 1 day ago
0 NOAA 16 DEB
1 41510U 00055MJ  25348.71867290  .00003832  00000-0  15492-2 0  9992
2 41510  98.7606  76.5956 0025456 188.7812 171.2927 14.28245803503042
Epoch: 2025-12-14T17:14Z
TLE epoch observation values (Epoch: 2025-12-14T17:14:53.338Z)
Latitude
-0.00002°
Longitude
94.2458°
Altitude
818.585 km
Speed
7.434 km/s
True Right ascension
05h 06m 22s
True Declination
0° 00' 00"
Sunlit
Object was in full shadow at epoch
Visualization orbit readout
Latitude
Unknown
Longitude
Unknown
Altitude
Unknown
Speed
Unknown
Apparent Right ascension
Unknown
Apparent Declination
Unknown
Sunlit
N/A
Visualization observer readout
Local Sidereal Time
16:51:13
Azimuth
Unknown
Elevation
Unknown
Doppler factor
Unknown
Orbital elements
Apogee altitude
813.01 km
Perigee altitude
776.491 km
Semi-major axis
7,172.887 km
Eccentricity
0.00255
Inclination
98.7606°
RAAN
76.5956°
Arg. of periapsis
188.7812°
True anomaly
171.33672°
Mean anomaly
171.2927°
Eccentric anomaly
171.31472°
Mean motion
3.57275 °/min
Orbital period
100.76 mins
BSTAR
0.0015492
Loading maneuver chart data...
Computing Atmospheric mass density...
Loading historical data...
Loading historical data...
Loading historical data...
Loading historical data...
Loading historical data...
Loading historical data...
Loading historical data...

Documentation

Showing up to 5 results
|